Location: Ladrillo (historical)
(32.8195°N, 117.2231°W)
Time: 10:32:42
(UTC+00:00)

Vanguard 3 - Pass Details

Date: 05 March 2021
Orbit: 508 x 3262 km, 33.3° (Epoch: 14 April)

Event Time Altitude Azimuth Distance (km) Brightness Sun altitude
Rises 04:44:54 0° 286° (WNW) 5,944 12.5 -37.3°
Reaches altitude 10° 04:49:49 10° 279° (W) 4,458 11.6 -38.3°
Enters shadow 04:59:10 36° 225° (SW) 2,029 9.1 -40.1°
Maximum altitude 04:59:37 36° 219° (SW) 1,981 - -40.2°
Drops below altitude 10° 05:05:32 10° 154° (SSE) 2,668 - -41.3°
Sets 05:07:47 0° 144° (SE) 3,356 - -41.8°
